Tracking 28790 objects as of 19-Apr-2024
HD Live streaming from Space Station
objects crossing your sky now

CZ-2C DEB

Track CZ-2C DEB now!
10-day predictions


NORAD ID: 38863
Int'l Code: 2012-056D
Perigee: 577.6 km
Apogee: 593.3 km
Inclination: 97.6 °
Period: 96.2 minutes
Semi major axis: 6956 km
RCS: 4.6535 m2 (large)
Launch date: October 14, 2012
Source: People's Republic of China (PRC)
Launch site: Taiyaun Space Center, China (TSC)

Note: This is SATELLITE DEBRIS
Your satellite tracking list
Your tracking list is empty




NASA's NSSDC Master Catalog

Two Line Element Set (TLE):
1 38863U 12056D   24110.18828102  .00015598  00000-0  13807-2 0  9999
2 38863  97.6398 175.7280 0011251 228.6830 131.3424 14.96310236624231
Source of the keplerian elements: AFSPC